Lakehurst NAS, NJ

10:09 AM EST on December 17, 2017 (GMT -0500)
Lakehurst Naes

Weather History for KNEL - February, 2013

Change the Weather History Date:

Saturday, February 16, 2013

  Actual Average Record
Temperature  
Mean Temperature 38 °F -  
Max Temperature 32 °F 44 °F 66 °F (2005)
Min Temperature 33 °F 30 °F 18 °F (2014)
Degree Days  
Heating Degree Days 26    
Moisture  
Dew Point 29 °F    
Average Humidity 75    
Maximum Humidity 93    
Minimum Humidity 48    
Precipitation  
Precipitation 0.00 in - - ()
Sea Level Pressure  
Sea Level Pressure 29.89 in    
Wind  
Wind Speed 6 mph (North)    
Max Wind Speed 10 mph    
Max Gust Speed 21 mph    
Averages and records for this station are not official NWS values.
T = Trace of Precipitation, MM = Missing Value Source: NWS Daily Summary

Daily Weather History Graph

Daily Weather History Graph

Search for Another Location

Airport or City:

Trip Planner

Search our weather history database for the weather conditions in past years. The results will help you decide how hot, cold, wet, or windy it might be!

Date:

Astronomy

Feb. 16, 2013 Rise Set
Actual Time 6:48 AM EST 5:34 PM EST
Civil Twilight 6:21 AM EST 6:02 PM EST
Nautical Twilight 5:49 AM EST 6:34 PM EST
Astronomical Twilight 5:17 AM EST 7:05 PM EST
Moon 10:00 AM EST (2/16) No Moon Set
Length of Visible Light 11h 41m
Length of Day
10h 46m
Waxing Crescent, 39% of the Moon is Illuminated
Feb 16
Waxing Crescent
Feb 17
First Quarter
Feb 25
Full
Mar 4
Last Quarter
Mar 11
New

Hourly Weather History & Observations

Time (EST) Temp. Windchill Dew Point Humidity Pressure Visibility Wind Dir Wind Speed Gust Speed Precip Events Conditions
12:00 AM 44.1 °F 39.0 °F 30.0 °F 58% 29.94 in - NW 9.2 mph 16.1 mph N/A   Overcast
1:00 AM 42.1 °F 36.6 °F 32.0 °F 67% 29.95 in - NW 9.2 mph - N/A   Overcast
2:00 AM 39.9 °F 35.8 °F 33.1 °F 77% 29.94 in - NNW 5.8 mph - N/A   Overcast
3:00 AM 37.4 °F 32.8 °F 33.8 °F 87% 29.94 in - Variable 5.8 mph - N/A   Overcast
3:06 AM 37.9 °F 34.4 °F 33.1 °F 83% 29.94 in - Variable 4.6 mph - N/A   Overcast
3:15 AM 37.4 °F 34.9 °F 33.8 °F 87% 29.93 in - Variable 3.5 mph - 0.00 in Rain Light Rain
4:00 AM 37.0 °F 34.5 °F 33.1 °F 86% 29.91 in - Variable 3.5 mph - 0.00 in   Overcast
4:40 AM 37.4 °F 34.9 °F 33.8 °F 87% 29.93 in - NW 3.5 mph - N/A   Overcast
5:00 AM 37.0 °F 33.3 °F 33.1 °F 86% 29.93 in - NNW 4.6 mph - N/A   Overcast
7:00 AM 36.0 °F - 33.1 °F 89% 29.93 in - Calm Calm - N/A   Overcast
7:24 AM 35.6 °F - 33.8 °F 93% 29.93 in - Calm Calm - N/A   Overcast
7:43 AM 37.4 °F 33.8 °F 33.8 °F 87% 29.93 in - Variable 4.6 mph - N/A   Overcast
8:00 AM 37.4 °F 33.8 °F 33.8 °F 87% 29.93 in - North 4.6 mph - N/A   Overcast
8:06 AM 37.0 °F 34.5 °F 33.1 °F 86% 29.93 in - NNE 3.5 mph - N/A   Overcast
8:17 AM 37.4 °F 33.8 °F 32.0 °F 81% 29.94 in - North 4.6 mph - N/A   Overcast
8:25 AM 37.4 °F 32.8 °F 32.0 °F 81% 29.94 in - Variable 5.8 mph - N/A   Overcast
9:00 AM 37.0 °F 33.3 °F 30.9 °F 79% 29.93 in - Variable 4.6 mph - 0.00 in   Overcast
9:20 AM 37.4 °F 32.8 °F 32.0 °F 81% 29.92 in - Variable 5.8 mph - 0.00 in   Overcast
9:55 AM 37.4 °F 32.1 °F 30.2 °F 75% 29.93 in - NNE 6.9 mph - 0.00 in   Overcast
10:00 AM 37.0 °F 34.5 °F 30.9 °F 79% 29.92 in - Variable 3.5 mph - 0.00 in   Overcast
10:28 AM 35.6 °F 30.7 °F 30.2 °F 81% 29.93 in - Variable 5.8 mph - 0.00 in Snow Light Snow
10:55 AM 35.6 °F 28.0 °F 30.2 °F 81% 29.92 in - North 10.4 mph - 0.00 in Snow Light Snow
11:00 AM 35.1 °F 30.1 °F 30.0 °F 82% 29.92 in - North 5.8 mph - 0.00 in Snow Light Snow
11:32 AM 35.6 °F 30.7 °F 30.2 °F 81% 29.91 in - Variable 5.8 mph - 0.00 in Snow Light Snow
11:40 AM 35.6 °F 30.7 °F 30.2 °F 81% 29.91 in - NNE 5.8 mph - 0.00 in Snow Light Snow
11:49 AM 35.6 °F 31.7 °F 32.0 °F 87% 29.91 in - NNE 4.6 mph - 0.00 in   Overcast
12:00 PM 37.0 °F - 32.0 °F 82% 29.90 in - Calm Calm - 0.00 in   Overcast
12:15 PM 37.4 °F 33.8 °F 32.0 °F 81% 29.90 in - Variable 4.6 mph - N/A   Overcast
12:28 PM 37.4 °F 33.8 °F 32.0 °F 81% 29.89 in - Variable 4.6 mph - N/A   Overcast
12:46 PM 37.4 °F 31.4 °F 32.0 °F 81% 29.88 in - ENE 8.1 mph - N/A   Overcast
2:00 PM 39.9 °F 36.7 °F 28.9 °F 65% 29.85 in - Variable 4.6 mph - N/A   Overcast
3:00 PM 39.9 °F 37.8 °F 28.0 °F 63% 29.84 in - NE 3.5 mph - N/A   Overcast
4:00 PM 39.0 °F 34.0 °F 23.0 °F 53% 29.83 in - North 6.9 mph - N/A   Overcast
5:00 PM 37.0 °F 32.4 °F 23.0 °F 57% 29.82 in - Variable 5.8 mph - N/A   Overcast
6:00 PM 36.0 °F 30.3 °F 21.0 °F 55% 29.81 in - NNW 6.9 mph - N/A   Overcast
7:00 PM 36.0 °F 29.6 °F 19.9 °F 52% 29.81 in - NNW 8.1 mph - N/A   Overcast
8:00 PM 35.1 °F 30.1 °F 19.0 °F 52% 29.80 in - NNW 5.8 mph - N/A   Overcast
9:00 PM 34.0 °F 28.8 °F 16.0 °F 48% 29.80 in - North 5.8 mph - N/A   Overcast
10:00 PM 33.1 °F 28.7 °F 17.1 °F 52% 29.77 in - Variable 4.6 mph - N/A   Overcast
11:00 PM 33.1 °F 26.1 °F 19.0 °F 56% 29.74 in - North 8.1 mph 20.7 mph N/A   Overcast